コプフ彗星

22P/Kopff (2022)

English version
Home page
Updated on September 29, 2022

---------------------------------------------------------------------

・ プロフィール

・ 写真集

・ 軌道要素

Epoch 2022 Aug. 9.0 TT = JDT 2459800.5
T 2022 Mar. 18.14998 TT                                 Rudenko
q   1.5523748            (2000.0)            P               Q
n   0.15434357     Peri.  163.03395     +0.24042660     +0.96806818
a   3.4419959      Node   120.82715     -0.89989008     +0.24971240
e   0.5489899      Incl.    4.74180     -0.36385834     +0.02208449
P   6.39
From 3873 observations 2008 Jan. 30-2022 June 6, mean residual 0".7.
     Nongravitational parameters A1 = +0.04, A2 = -0.0394.

・ 星図

・ 光度変化

        H = 14.5  G = 0.15               [    ,-525]  (              〜2020年10月 9日)
        m1 = 5.3 + 5 logΔ + 21.0 log r  [-525, 550]  (2020年10月 9日〜2023年 9月19日)
        H = 14.5  G = 0.15               [ 550,    ]  (2023年 9月19日〜              )

---------------------------------------------------------------------

軌道要素はM.P.E.C. 2022-L66に掲載されたものです。
星図はステラナビゲータ Ver.10 (アストロアーツ) で作成したものです。
光度グラフはComet for Windowsで作成したものです。

---------------------------------------------------------------------

Copyright(C) Seiichi Yoshida (comet@aerith.net). All rights reserved.